Flag for U.S.A. Weather past 2 weeks in Salinas, California, U.S.A.

Now
60 °F

Passing clouds.


Feels Like: 60 °F
Forecast: 58 / 77 °F
Wind: 3 mph from West

Location: Salinas Municipal Airport

Current Time: Jul 24, 2014 at 7:04:47 AM

Latest Report: Jul 24, 2014 at 5:53 AM


Visibility: 10 mi

Pressure: 30.04 "Hg

Humidity: 90%

Dew point: 57 °F

Location of SalinasLocation

Historic Weather in Salinas — Graph

°F

Salinas temperature yesterday

Maximum temperature yesterday: 77 °F (at 11:53 AM)
Minimum temperature yesterday: 58 °F (at 5:53 AM)
Average temperature yesterday: 67 °F

Past Weeks' High & Low Weather Summary

 TemperatureHumidityPressure
High77 °F (Jul 23, 11:53 AM)97% (Jul 13, 5:53 AM)30.17 "Hg (Jul 13, 5:53 AM)
Low56 °F (Jul 13, 4:53 AM)48% (Jul 23, 11:53 AM)29.89 "Hg (Jul 14, 3:53 AM)
Average64 °F76%30.03 "Hg
* Reported Jul 9 5:53 AM — Jul 24 5:53 AM, Salinas, Weather by CustomWeather, © 2014

Note: Actual official high and low records may vary slightly from our data, if they occured in-between our weather recording intervals... More about our weather records

Advertising

Salinas weather history for previous 24 hours

 ConditionsComfort  
Time TempWeatherWind HumidityBarometerVisibility
5:53 AM
Jul 24
60 °FPassing clouds.3 mph90%30.04 "Hg10 mi
4:53 AM61 °FClear.3 mph90%30.03 "Hg10 mi
3:53 AM61 °FClear.5 mph90%30.04 "Hg10 mi
2:53 AM62 °FClear.6 mph86%30.06 "Hg10 mi
1:53 AM62 °FClear.7 mph83%30.06 "Hg10 mi
12:53 AM63 °FClear.3 mph81%30.07 "Hg10 mi
11:53 PM
Jul 23
63 °FClear.7 mph81%30.07 "Hg10 mi
10:53 PM64 °FClear.9 mph78%30.06 "Hg10 mi
9:53 PM64 °FClear.10 mph75%30.06 "Hg10 mi
8:53 PM65 °FSunny.8 mph73%30.07 "Hg10 mi
7:53 PM66 °FPassing clouds.8 mph73%30.07 "Hg10 mi
6:53 PM67 °FPartly sunny.10 mph76%30.08 "Hg10 mi
5:53 PM70 °FSunny.15 mph71%30.09 "Hg10 mi
4:53 PM73 °FSunny.15 mph64%30.09 "Hg10 mi
3:53 PM75 °FSunny.15 mph60%30.10 "Hg10 mi
2:53 PM76 °FSunny.14 mph56%30.11 "Hg10 mi
1:53 PM77 °FSunny.14 mph52%30.11 "Hg10 mi
12:53 PM77 °FSunny.9 mph48%30.13 "Hg10 mi
11:53 AM77 °FSunny.9 mph48%30.14 "Hg10 mi
10:53 AM74 °FSunny.3 mph52%30.16 "Hg10 mi
9:53 AM70 °FSunny.5 mph59%30.16 "Hg10 mi
8:53 AM67 °FSunny.3 mph68%30.17 "Hg10 mi
7:53 AM61 °FSunny.No wind81%30.16 "Hg10 mi
Weather by CustomWeather, © 2014

See weather overviewHow to use our weather pages